Location: Boston
(42.3580°N, 71.0600°W)
Time: 00:17:36
(UTC-04:00)

Vanguard 1 Rocket - All Passes

Search period start: 25 June 2018 00:00
Search period end: 05 July 2018 00:00
Orbit: 653 x 4224 km, 34.3° (Epoch: 24 June)

Date Brightness Start Highest point End Pass type
(mag) Time Alt. Az. Time Alt. Az. Time Alt. Az.
25 Jun - 14:55:03 10° S 14:57:36 14° SSE 14:59:57 10° SE daylight
25 Jun - 17:17:47 10° WSW 17:21:42 31° S 17:26:19 10° ESE daylight
25 Jun - 19:41:39 10° WSW 19:46:07 30° S 19:52:51 10° SE daylight
25 Jun - 22:07:12 10° WSW 22:11:40 16° SSW 22:17:44 10° SSE visible
26 Jun - 16:07:26 10° SW 16:11:13 25° SSE 16:14:59 10° ESE daylight
26 Jun - 18:31:19 10° WSW 18:35:24 32° S 18:40:54 10° ESE daylight
26 Jun - 20:55:54 10° WSW 21:00:19 20° SSW 21:06:38 10° SSE visible
27 Jun - 14:57:02 10° SSW 15:00:41 19° SSE 15:03:52 10° ESE daylight
27 Jun - 17:20:54 10° WSW 17:24:51 32° S 17:29:22 10° ESE daylight
27 Jun - 19:45:11 10° WSW 19:49:18 24° SSW 19:55:05 10° SE daylight
27 Jun - 22:13:55 10° SSW 22:14:52 10° SSW 22:15:54 10° SSW visible
28 Jun - 13:46:50 10° SSW 13:49:57 14° SSE 13:52:36 10° SE daylight
28 Jun - 16:10:17 10° SW 16:14:21 29° S 16:18:15 10° ESE daylight
28 Jun - 18:34:40 10° WSW 18:38:33 28° S 18:43:35 10° SE daylight
28 Jun - 21:00:19 10° SW 21:03:31 14° SSW 21:07:33 10° S visible
29 Jun - 12:38:20 10° SSE 12:38:57 10° SSE 12:39:34 10° SSE daylight
29 Jun - 14:59:26 10° SW 15:03:49 24° SSE 15:07:27 10° ESE daylight
29 Jun - 17:24:05 10° WSW 17:27:59 30° S 17:32:21 10° ESE daylight
29 Jun - 19:48:59 10° WSW 19:52:28 18° SSW 19:56:59 10° SSE daylight
30 Jun - 13:48:26 10° SSW 13:53:06 20° SSE 13:56:41 10° ESE daylight
30 Jun - 16:13:15 10° WSW 16:17:29 31° S 16:21:27 10° ESE daylight
30 Jun - 18:38:09 10° WSW 18:41:42 23° SSW 18:46:05 10° SE daylight
01 Jul - 12:37:36 10° SSW 12:42:08 16° SSE 12:45:38 10° SE daylight
01 Jul - 15:02:04 10° SW 15:06:57 29° S 15:10:50 10° ESE daylight
01 Jul - 17:27:21 10° WSW 17:31:08 27° S 17:35:14 10° SE daylight
01 Jul - 19:53:26 10° SW 19:55:38 12° SSW 19:58:09 10° S daylight
02 Jul - 11:27:44 10° S 11:30:52 12° SSE 11:33:31 10° SE daylight
02 Jul - 13:50:34 10° SW 13:56:16 26° S 14:00:21 10° ESE daylight
02 Jul - 16:16:18 10° WSW 16:20:38 31° S 16:24:35 10° ESE daylight
02 Jul - 18:41:50 10° WSW 18:44:49 17° SSW 18:48:17 10° SSE daylight
03 Jul - 12:38:56 10° SSW 12:45:20 22° SSE 12:49:45 10° ESE daylight
03 Jul - 15:04:51 10° WSW 15:10:06 33° S 15:14:08 10° ESE daylight
03 Jul - 17:30:41 10° WSW 17:34:14 23° SSW 17:37:58 10° SE daylight
04 Jul - 11:27:30 10° SSW 11:34:04 18° SSE 11:38:44 10° ESE daylight
04 Jul - 13:52:57 10° SW 13:59:26 32° S 14:03:49 10° ESE daylight
04 Jul - 16:19:24 10° WSW 16:23:45 30° S 16:27:38 10° SE daylight
04 Jul - 18:46:10 10° SW 18:47:55 12° SSW 18:49:47 10° S daylight
